[[{"header":{"parameterUnit":"m.s-1","parameterCategory":1,"la1":30.2991,"la2":30.254,"lo1":-89.0895,"lo2":-89.0444,"dy":0.0017,"dx":0.0017,"nx":28,"ny":28,"refTime":"2025-04-17T03:00:00:Z","depth":0,"parameterNumber":2,"parameterNumberName":"U-component_of_WINDS"},"data":[0,0,0,0,0,0,0,0,0,0,0,0,0,0,0,0,0,0,0,0,0,0,0,0,0,0,0,0,0,0,0,0,0,0,0,0,0,0,0,0,0,0,0,0,0,0,0,0,0,0,0,0,0,0,0,0,0,0,-4.282,-4.2822,0,-4.3015,-4.3018,-4.302,-4.3054,-4.3052,-4.3051,-4.3049,-4.3248,-4.3255,-4.3262,0,0,0,0,0,0,0,0,0,0,0,0,0,-4.2476,-4.2482,-4.282,-4.2822,-4.2825,-4.3015,-4.3018,-4.302,-4.3054,-4.3052,-4.305,-4.3048,-4.3246,-4.3254,-4.3262,0,0,0,0,0,0,0,0,0,0,0,0,0,-4.2644,-4.2484,-4.282,-4.2865,-4.2871,-4.3015,-4.3018,-4.3021,-4.3054,-4.3052,-4.305,-4.3047,-4.3243,-4.3253,-4.3263,-4.3376,0,0,-4.3295,-4.3299,0,0,0,0,0,0,0,0,-4.2634,-4.2657,-4.2856,-4.2862,-4.2869,-4.3008,-4.297,-4.314,-4.3055,-4.2985,-4.3049,-4.3046,-4.317,-4.3186,-4.3228,-4.3385,-4.3394,-4.3296,-4.3302,-4.3306,-4.3309,0,0,0,0,0,0,0,-4.2623,-4.2648,-4.2897,-4.2858,-4.2867,-4.2875,-4.2896,-4.3002,-4.3089,-4.2991,-4.2994,-4.3016,-4.3173,-4.3218,-4.3233,-4.3397,-4.3295,-4.3304,-4.3311,-4.3315,-4.3655,-4.3658,0,0,0,0,0,0,-4.2603,-4.2638,-4.2891,-4.2903,-4.2743,-4.2883,-4.2907,-4.2966,-4.3088,-4.3104,-4.3018,-4.3017,-4.3202,-4.3221,-4.324,-4.3379,-4.3306,-4.3316,-4.3322,-4.3653,-4.3656,-4.3659,0,0,0,0,0,0,-4.2596,-4.2625,-4.2883,-4.2772,-4.2805,-4.2892,-4.2957,-4.2971,-4.3016,-4.3109,-4.3124,-4.3048,-4.3201,-4.3226,-4.3342,-4.3387,-4.332,-4.333,-4.3649,-4.3654,-4.3658,-4.3658,0,0,0,0,0,0,-4.2586,-4.2622,-4.2666,-4.2772,-4.2811,-4.2981,-4.296,-4.2976,-4.3033,-4.3034,-4.3141,-4.3156,-4.3201,-4.3326,-4.3352,-4.3399,-4.3338,-4.3645,-4.3651,-4.3656,-4.3654,-4.3662,-4.3668,0,0,0,0,0,-4.2573,-4.2658,-4.2668,-4.2698,-4.2867,-4.2984,-4.3006,-4.3056,-4.3037,-4.3081,-4.3141,-4.3153,-4.3378,-4.3338,-4.3367,-4.3418,-4.3643,-4.365,-4.3656,-4.3651,-4.366,-4.3668,0,0,0,0,0,0,-4.2554,-4.2673,-4.2685,-4.2807,-4.2885,-4.2989,-4.3047,-4.3064,-4.3149,-4.3146,-4.3204,-4.3228,-4.334,-4.3392,-4.3345,-4.3534,-4.3509,-4.3522,-4.3496,-4.3505,-4.3512,-4.3496,-4.3346,0,0,0,0,0,-4.2564,-4.2649,-4.2748,-4.2846,-4.2885,-4.2959,-4.3012,-4.3044,-4.3127,-4.316,-4.3228,-4.3308,-4.3397,-4.3454,-4.3542,-4.3663,-4.3686,-4.3713,-4.372,-4.3725,-4.3734,-4.3802,-4.3814,-4.3681,-4.3681,-4.3681,0,0,-4.2585,-4.2661,-4.2711,-4.2844,-4.2909,-4.2995,-4.2987,-4.3078,-4.3143,-4.3174,-4.3287,-4.334,-4.3434,-4.3553,-4.3609,-4.3599,-4.3777,-4.3733,-4.3737,-4.3744,-4.381,-4.3822,-4.3834,-4.3685,-4.3684,-4.3684,0,0,-4.2668,-4.2734,-4.2823,-4.2887,-4.2985,-4.3034,-4.3055,-4.3158,-4.3194,-4.3309,-4.3334,-4.3412,-4.3564,-4.363,-4.3683,-4.3792,-4.3805,-4.3819,-4.3854,-4.3919,-4.393,-4.3939,-4.3977,-4.399,-4.3828,-4.3828,-4.3828,0,-4.2681,-4.2813,-4.2866,-4.2957,-4.3014,-4.3048,-4.3137,-4.3198,-4.3319,-4.3358,-4.3346,-4.3537,-4.3603,-4.3737,-4.3764,-4.3806,-4.3832,-4.3805,-4.3924,-4.3934,-4.3944,-4.398,-4.3994,-4.3829,-4.3829,-4.3829,-4.3829,0,-4.2824,-4.2915,-4.2975,-4.3091,-4.3156,-4.3246,-4.3313,-4.3372,-4.3399,-4.3449,-4.3566,-4.3646,-4.3749,-4.3784,-4.3811,-4.3923,-4.3914,-4.3912,-4.3888,-4.3956,-4.3991,-4.4006,-4.383,-4.383,-4.383,-4.383,0,0,-4.2898,-4.3043,-4.3064,-4.3117,-4.3228,-4.3299,-4.3391,-4.3493,-4.3542,-4.3625,-4.3703,-4.3832,-4.3831,-4.3891,-4.3927,-4.3984,-4.4064,-4.3976,-4.3979,-4.3987,-4.419,-4.4189,-4.4204,-4.4075,-4.4078,-4.408,-4.4182,0,-4.2992,-4.3156,-4.3207,-4.3345,-4.3429,-4.3462,-4.3542,-4.3619,-4.3669,-4.3748,-4.3803,-4.3893,-4.3886,-4.3923,-4.3981,-4.4041,-4.4105,-4.4035,-4.4146,-4.415,-4.4119,-4.4223,-4.4222,-4.4314,-4.4196,-4.4199,-4.42,0,-4.3123,-4.3208,-4.3354,-4.3454,-4.3492,-4.3562,-4.366,-4.3735,-4.3823,-4.3855,-4.3923,-4.3954,-4.4051,-4.4024,-4.4158,-4.4109,-4.4159,-4.4195,-4.42,-4.421,-4.4177,-4.4234,-4.4345,-4.4358,-4.4223,-4.4221,-4.4219,0,-4.316,-4.3312,-4.3418,-4.3463,-4.3583,-4.3632,-4.3684,-4.377,-4.3828,-4.3913,-4.3951,-4.4047,-4.4099,-4.4173,-4.4228,-4.4203,-4.4357,-4.4335,-4.4386,-4.4385,-4.4415,-4.4412,-4.4533,-4.445,-4.445,-4.445,-4.4449,0,-4.3258,-4.3346,-4.3436,-4.3501,-4.36,-4.3659,-4.3755,-4.3809,-4.3886,-4.3962,-4.3998,-4.4069,-4.4139,-4.4219,-4.4264,-4.4367,-4.4391,-4.442,-4.443,-4.4415,-4.4411,-4.4446,-4.444,-4.4453,-4.4452,-4.4452,-4.4451,0,-4.3315,-4.3379,-4.3497,-4.3602,-4.363,-4.3698,-4.3788,-4.3853,-4.3905,-4.4001,-4.4027,-4.4109,-4.4205,-4.4269,-4.4392,-4.4422,-4.4535,-4.4545,-4.4505,-4.4509,-4.4556,-4.455,-4.4703,-4.4725,-4.4629,-4.4629,-4.463,0,-4.3372,-4.344,-4.3553,-4.3606,-4.3659,-4.3745,-4.3805,-4.3866,-4.3926,-4.4032,-4.4084,-4.4183,-4.4265,-4.4417,-4.4488,-4.4582,-4.4593,-4.4641,-4.4608,-4.4591,-4.4592,-4.4586,-4.4593,-4.4645,-4.4645,-4.4646,-4.4647,0,-4.3467,-4.3496,-4.358,-4.3676,-4.3746,-4.3824,-4.3902,-4.3944,-4.4019,-4.4085,-4.4184,-4.4248,-4.4374,-4.4472,-4.4573,-4.4627,-4.4649,-4.4657,-4.4673,-4.4658,-4.4631,-4.4644,-4.4517,-4.4652,-4.4652,-4.4651,-4.4651,-4.4651,-4.3525,-4.3587,-4.3675,-4.3768,-4.3833,-4.3906,-4.3972,-4.4033,-4.4116,-4.4223,-4.4255,-4.4358,-4.4445,-4.4583,-4.4639,-4.4721,-4.4716,-4.474,-4.4746,-4.475,-4.475,-4.462,-4.474,-4.474,-4.474,-4.474,-4.474,0,-4.362,-4.3679,-4.3764,-4.3872,-4.3945,-4.3961,-4.4049,-4.4108,-4.4199,-4.4278,-4.4359,-4.4472,-4.4568,-4.4646,-4.4744,-4.4794,-4.4807,-4.4818,-4.4814,-4.4826,-4.475,-4.4725,-4.4806,-4.4806,-4.4806,-4.4806,-4.4806,-4.4806,-4.3678,-4.3783,-4.3822,-4.396,-4.4019,-4.412,-4.4168,-4.4236,-4.4299,-4.4425,-4.4504,-4.4555,-4.4634,-4.4738,-4.4826,-4.4847,-4.4881,-4.4889,-4.4912,-4.4839,-4.4831,-4.4824,-4.48,-4.4896,-4.4897,-4.4981,-4.4981,-4.4982]},{"header":{"parameterUnit":"m.s-1","parameterCategory":1,"la1":30.2991,"la2":30.254,"lo1":-89.0895,"lo2":-89.0444,"dy":0.0017,"dx":0.0017,"nx":28,"ny":28,"refTime":"2025-04-17T03:00:00:Z","depth":0,"parameterNumber":3,"parameterNumberName":"V-component_of_WINDS"},"data":[0,0,0,0,0,0,0,0,0,0,0,0,0,0,0,0,0,0,0,0,0,0,0,0,0,0,0,0,0,0,0,0,0,0,0,0,0,0,0,0,0,0,0,0,0,0,0,0,0,0,0,0,0,0,0,0,0,0,4.8834,4.8836,0,4.8982,4.8984,4.8985,4.8993,4.8992,4.899,4.8988,4.9136,4.9142,4.9147,0,0,0,0,0,0,0,0,0,0,0,0,0,4.8557,4.8562,4.8834,4.8836,4.8838,4.8982,4.8984,4.8986,4.8994,4.8992,4.899,4.8988,4.9134,4.9141,4.9147,0,0,0,0,0,0,0,0,0,0,0,0,0,4.8688,4.8564,4.8834,4.8859,4.8863,4.8981,4.8984,4.8986,4.8994,4.8992,4.8989,4.8987,4.9132,4.914,4.9148,4.925,0,0,4.9174,4.9177,0,0,0,0,0,0,0,0,4.8681,4.8698,4.8854,4.8858,4.8862,4.8967,4.894,4.9075,4.8995,4.8944,4.8988,4.8985,4.9082,4.9094,4.9127,4.9257,4.9263,4.9174,4.9179,4.9183,4.9185,0,0,0,0,0,0,0,4.8672,4.8692,4.8892,4.8856,4.8861,4.8863,4.8878,4.8966,4.9025,4.8948,4.8949,4.8967,4.9083,4.9119,4.9131,4.9266,4.9174,4.9181,4.9187,4.919,4.9489,4.9492,0,0,0,0,0,0,4.8658,4.8684,4.8888,4.8897,4.8763,4.887,4.8887,4.8936,4.9024,4.9035,4.8969,4.8967,4.9106,4.9121,4.9136,4.9262,4.9183,4.9191,4.9195,4.9486,4.949,4.9493,0,0,0,0,0,0,4.8652,4.8676,4.8882,4.8791,4.8817,4.8877,4.8931,4.894,4.8976,4.904,4.905,4.8995,4.9105,4.9124,4.9223,4.9267,4.9194,4.9202,4.9482,4.9487,4.9491,4.9515,0,0,0,0,0,0,4.8644,4.8674,4.8713,4.8792,4.8822,4.8966,4.8934,4.8945,4.899,4.8989,4.9067,4.9077,4.9104,4.921,4.9231,4.9278,4.9208,4.9479,4.9484,4.949,4.9511,4.952,4.9528,0,0,0,0,0,4.8634,4.8713,4.8715,4.874,4.8873,4.8969,4.8986,4.9017,4.8994,4.9034,4.9076,4.9075,4.9259,4.922,4.9243,4.9293,4.9476,4.9483,4.9489,4.9507,4.9518,4.9528,0,0,0,0,0,0,4.8636,4.8723,4.8727,4.8834,4.8894,4.897,4.9022,4.9028,4.9095,4.909,4.9125,4.9142,4.924,4.9276,4.9231,4.9398,4.9365,4.9377,4.937,4.9382,4.939,4.9379,4.9215,0,0,0,0,0,4.8649,4.8721,4.8793,4.888,4.8911,4.8961,4.9004,4.9023,4.9086,4.9111,4.916,4.9221,4.9293,4.9339,4.9409,4.9516,4.9534,4.9562,4.9571,4.9577,4.9587,4.9648,4.9662,4.9515,4.9515,4.9515,0,0,4.8677,4.8733,4.8776,4.8882,4.8931,4.9004,4.8982,4.906,4.9115,4.9122,4.9219,4.9257,4.9327,4.9431,4.9479,4.9465,4.9632,4.9586,4.9591,4.9597,4.9657,4.9671,4.9683,4.9519,4.9519,4.9518,0,0,4.8764,4.8814,4.8893,4.8943,4.9019,4.9052,4.9071,4.9147,4.9173,4.9271,4.9279,4.9344,4.9467,4.9517,4.9559,4.9668,4.967,4.969,4.9735,4.9794,4.9806,4.9816,4.9856,4.987,4.9699,4.9699,4.97,0,4.8788,4.89,4.8933,4.9012,4.9058,4.9071,4.9152,4.9198,4.9292,4.9324,4.9306,4.9462,4.951,4.9627,4.9654,4.9687,4.971,4.9681,4.9802,4.9813,4.9823,4.9861,4.9876,4.9701,4.9701,4.9701,4.9701,0,4.8926,4.9004,4.9058,4.9151,4.9204,4.9283,4.9328,4.9377,4.9392,4.9427,4.9527,4.9586,4.9668,4.9697,4.9711,4.9817,4.9806,4.9795,4.9762,4.9838,4.9875,4.989,4.9704,4.9704,4.9703,4.9702,0,0,4.9018,4.9129,4.9149,4.9192,4.9277,4.9337,4.9417,4.95,4.9542,4.9606,4.9675,4.978,4.9771,4.9818,4.9838,4.989,4.9975,4.9873,4.9875,4.9891,5.0096,5.0104,5.0121,4.9977,4.998,4.9982,5.009,0,4.9116,4.926,4.9293,4.9416,4.9489,4.9503,4.9573,4.9632,4.9668,4.9734,4.9773,4.9847,4.983,4.9859,4.9911,4.9953,5.0017,4.9946,5.0041,5.0044,5.0023,5.014,5.0148,5.0247,5.0105,5.0107,5.0109,0,4.9248,4.9318,4.945,4.9527,4.9559,4.9621,4.97,4.9764,4.9832,4.9854,4.9908,4.9924,5.0008,4.9972,5.0088,5.004,5.0081,5.0108,5.0112,5.0122,5.0081,5.0153,5.028,5.0295,5.0132,5.013,5.0128,0,4.9303,4.943,4.9526,4.9562,4.9654,4.9698,4.9738,4.9804,4.9852,4.9921,4.9953,5.003,5.0073,5.0132,5.0168,5.0139,5.0282,5.0249,5.0303,5.0303,5.0333,5.033,5.0468,5.0358,5.0358,5.0358,5.0358,0,4.9409,4.9489,4.9552,4.9611,4.9701,4.9738,4.9827,4.9867,4.9926,4.9993,5.0009,5.0071,5.0115,5.0183,5.0212,5.0305,5.0323,5.0344,5.035,5.0343,5.034,5.037,5.0364,5.0362,5.0361,5.036,5.0359,0,4.9485,4.9531,4.9636,4.9716,4.9738,4.9801,4.9869,4.9927,4.9964,5.0048,5.007,5.0127,5.0209,5.0251,5.0352,5.0371,5.0476,5.0478,5.0454,5.0457,5.0509,5.0504,5.067,5.0695,5.0568,5.0569,5.057,0,4.955,4.9612,4.97,4.9747,4.9789,4.9863,4.9913,4.9953,5.0004,5.0088,5.0135,5.0218,5.0287,5.0416,5.0466,5.0544,5.0549,5.0602,5.056,5.0551,5.0551,5.0547,5.0554,5.0609,5.061,5.0611,5.0612,0,4.9661,4.9681,4.9752,4.9833,4.9893,4.9958,5.0022,5.0059,5.0109,5.0166,5.025,5.0303,5.0408,5.049,5.0572,5.0613,5.0622,5.0625,5.0642,5.0635,5.0618,5.0629,5.0474,5.0621,5.062,5.0619,5.0619,5.0618,4.9734,4.9791,4.9862,4.9942,4.9995,5.0055,5.0114,5.0159,5.023,5.032,5.0338,5.0428,5.0496,5.0608,5.0652,5.0722,5.0711,5.0735,5.0741,5.0747,5.075,5.0607,5.0737,5.0737,5.0737,5.0736,5.0736,0,4.9846,4.9893,4.9967,5.0057,5.012,5.0124,5.0196,5.0248,5.0327,5.0391,5.0459,5.0556,5.0637,5.0694,5.0776,5.0822,5.0828,5.0842,5.0839,5.0849,5.0754,5.0732,5.0836,5.0836,5.0836,5.0836,5.0836,5.0836,4.9912,5.0009,5.0038,5.0161,5.0207,5.0297,5.0337,5.0393,5.0444,5.0553,5.0621,5.0659,5.072,5.0807,5.0881,5.0896,5.0926,5.094,5.0955,5.0866,5.0855,5.0845,5.0824,5.0946,5.0946,5.1044,5.1045,5.1045]}]]